CORIOLIS

Last updated on Thu Oct 30 2025 00:03:36 GMT+0000 (Coordinated Universal Time)

1 27640U 03001A 25302.48805775 .00000218 00000+0 12332-3 0 9993 2 27640 98.7157 307.9096 0014485 153.5338 206.6581 14.19847806181480
UTC large
Height (km)
Speed (km/s)
/
Latitude / Longitude
Inclination (degrees)
Orbital Period (minutes)
Azimuth
Elevation
Range (km)
Doppler Factor

Next 0 passes for location: London (51.5072 / 0.1276)

Sorry there are no passes over London.